Hutchinson, MN

8:38 AM CST on November 20, 2017 (GMT -0600)
Hutchinson Municipal-Butler

Weather History for KHCD - October, 2013

Change the Weather History Date:

Saturday, October 19, 2013

  Actual Average Record
Temperature  
Mean Temperature 37 °F -  
Max Temperature 47 °F 56 °F 84 °F (2000)
Min Temperature 28 °F 33 °F 14 °F (1972)
Degree Days  
Heating Degree Days 28    
Moisture  
Dew Point 33 °F    
Average Humidity 83    
Maximum Humidity 99    
Minimum Humidity 56    
Precipitation  
Precipitation 0.00 in - - ()
Sea Level Pressure  
Sea Level Pressure 29.77 in    
Wind  
Wind Speed 7 mph (West)    
Max Wind Speed 20 mph    
Max Gust Speed 26 mph    
Visibility 10 miles    
Events Rain    
Averages and records for this station are not official NWS values.
T = Trace of Precipitation, MM = Missing Value Source: NWS Daily Summary

Daily Weather History Graph

Daily Weather History Graph

Search for Another Location

Airport or City:

Trip Planner

Search our weather history database for the weather conditions in past years. The results will help you decide how hot, cold, wet, or windy it might be!

Date:

Astronomy

Oct. 19, 2013 Rise Set
Actual Time 7:38 AM CDT 6:25 PM CDT
Civil Twilight 7:08 AM CDT 6:55 PM CDT
Nautical Twilight 6:34 AM CDT 7:29 PM CDT
Astronomical Twilight 6:00 AM CDT 8:03 PM CDT
Moon 6:50 PM CDT (10/19) 8:19 AM CDT (10/19)
Length of Visible Light 11h 46m
Length of Day
10h 46m
Waxing Gibbous, 99% of the Moon is Illuminated
Oct 19
Waxing Gibbous
Oct 26
Last Quarter
Nov 3
New
Nov 9
First Quarter
Nov 17
Full

Hourly Weather History & Observations

Time (CDT) Temp. Windchill Dew Point Humidity Pressure Visibility Wind Dir Wind Speed Gust Speed Precip Events Conditions
12:13 AM 38.3 °F 33.2 °F 36.5 °F 93% 29.85 in 10.0 mi WSW 6.9 mph - N/A   Clear
12:34 AM 37.8 °F 34.2 °F 36.0 °F 93% 29.84 in 10.0 mi WSW 4.6 mph - N/A   Clear
12:53 AM 36.7 °F 32.0 °F 35.2 °F 95% 29.84 in 10.0 mi WSW 5.8 mph - N/A   Clear
1:14 AM 36.1 °F 31.4 °F 34.9 °F 95% 29.83 in 10.0 mi WSW 5.8 mph - N/A   Clear
1:33 AM 35.2 °F 32.4 °F 34.3 °F 97% 29.82 in 10.0 mi WSW 3.5 mph - N/A   Clear
1:54 AM 35.1 °F 31.0 °F 34.3 °F 97% 29.82 in 10.0 mi WSW 4.6 mph - N/A   Clear
2:13 AM 35.4 °F 32.6 °F 34.2 °F 95% 29.82 in 10.0 mi SW 3.5 mph - N/A   Clear
2:33 AM 35.1 °F 32.2 °F 34.0 °F 96% 29.81 in 10.0 mi SW 3.5 mph - N/A   Scattered Clouds
2:53 AM 34.9 °F 32.0 °F 33.6 °F 95% 29.80 in 10.0 mi SSW 3.5 mph - N/A   Mostly Cloudy
3:14 AM 34.7 °F 31.8 °F 33.8 °F 97% 29.79 in 10.0 mi SSW 3.5 mph - N/A   Mostly Cloudy
3:33 AM 35.6 °F 31.7 °F 34.0 °F 94% 29.78 in 10.0 mi SSW 4.6 mph - N/A   Overcast
3:53 AM 35.8 °F 30.9 °F 34.2 °F 94% 29.78 in 10.0 mi SW 5.8 mph - N/A   Overcast
4:13 AM 34.9 °F 30.8 °F 33.8 °F 96% 29.76 in 10.0 mi SSW 4.6 mph - N/A   Mostly Cloudy
4:33 AM 35.2 °F 31.2 °F 33.8 °F 94% 29.76 in 10.0 mi SW 4.6 mph - N/A   Mostly Cloudy
4:53 AM 35.6 °F 30.7 °F 34.0 °F 94% 29.75 in 10.0 mi SW 5.8 mph - N/A   Scattered Clouds
5:14 AM 35.8 °F 30.1 °F 34.0 °F 93% 29.75 in 10.0 mi SW 6.9 mph - N/A   Scattered Clouds
5:33 AM 36.1 °F 31.4 °F 34.0 °F 92% 29.74 in 10.0 mi SW 5.8 mph - N/A   Mostly Cloudy
5:53 AM 35.8 °F 30.9 °F 33.4 °F 91% 29.74 in 10.0 mi WSW 5.8 mph - N/A   Scattered Clouds
6:14 AM 35.8 °F 30.1 °F 33.6 °F 92% 29.74 in 10.0 mi WSW 6.9 mph - N/A   Scattered Clouds
6:34 AM 36.5 °F 31.0 °F 34.2 °F 91% 29.73 in 10.0 mi WSW 6.9 mph - N/A Rain Light Rain
6:53 AM 36.3 °F 31.6 °F 34.3 °F 93% 29.72 in 10.0 mi SW 5.8 mph - N/A   Overcast
7:13 AM 36.5 °F 31.0 °F 34.7 °F 93% 29.73 in 10.0 mi WSW 6.9 mph - N/A   Overcast
7:33 AM 36.5 °F 31.8 °F 34.7 °F 93% 29.72 in 10.0 mi SW 5.8 mph - N/A   Light Drizzle
7:54 AM 36.5 °F 31.8 °F 34.7 °F 93% 29.72 in 10.0 mi WSW 5.8 mph - N/A   Mostly Cloudy
8:13 AM 37.4 °F 32.1 °F 35.2 °F 92% 29.72 in 10.0 mi WSW 6.9 mph - N/A   Overcast
9:13 AM 39.2 °F 33.6 °F 36.9 °F 91% 29.72 in 10.0 mi West 8.1 mph - N/A   Overcast
9:33 AM 39.6 °F 34.0 °F 37.2 °F 91% 29.72 in 10.0 mi WSW 8.1 mph - N/A   Mostly Cloudy
9:53 AM 41.4 °F 34.3 °F 38.3 °F 89% 29.72 in 10.0 mi West 12.7 mph - N/A   Overcast
10:14 AM 42.3 °F 35.1 °F 38.5 °F 86% 29.72 in 10.0 mi West 13.8 mph 23.0 mph N/A Rain Light Rain
10:33 AM 41.2 °F 35.5 °F 39.6 °F 94% 29.72 in 10.0 mi West 9.2 mph - N/A   Overcast
10:53 AM 41.4 °F 35.2 °F 39.0 °F 91% 29.72 in 10.0 mi West 10.4 mph - N/A   Overcast
11:14 AM 43.3 °F 37.7 °F 39.4 °F 86% 29.72 in 10.0 mi West 10.4 mph 16.1 mph N/A   Overcast
11:33 AM 44.4 °F 38.6 °F 40.1 °F 85% 29.71 in 10.0 mi West 11.5 mph 16.1 mph N/A   Mostly Cloudy
11:53 AM 44.4 °F 40.0 °F 38.3 °F 79% 29.71 in 10.0 mi WNW 8.1 mph - N/A   Mostly Cloudy
12:13 PM 44.6 °F 38.1 °F 37.0 °F 75% 29.72 in 10.0 mi WNW 13.8 mph 18.4 mph N/A   Mostly Cloudy
12:34 PM 46.6 °F - 36.7 °F 68% 29.72 in 10.0 mi WNW 13.8 mph 19.6 mph N/A   Mostly Cloudy
12:54 PM 43.3 °F 36.5 °F 37.0 °F 78% 29.72 in 10.0 mi NW 13.8 mph 26.5 mph N/A Rain Light Rain
1:13 PM 45.0 °F 37.1 °F 34.2 °F 66% 29.72 in 10.0 mi WNW 19.6 mph 24.2 mph N/A   Overcast
1:34 PM 44.8 °F 37.7 °F 34.7 °F 68% 29.72 in 10.0 mi WNW 16.1 mph 21.9 mph N/A   Overcast
1:53 PM 46.8 °F - 33.8 °F 61% 29.72 in 10.0 mi WNW 13.8 mph 24.2 mph N/A   Mostly Cloudy
2:13 PM 45.0 °F 37.9 °F 32.9 °F 63% 29.72 in 10.0 mi WNW 16.1 mph 21.9 mph N/A   Mostly Cloudy
2:34 PM 45.5 °F 39.6 °F 30.6 °F 56% 29.73 in 10.0 mi WNW 12.7 mph 20.7 mph N/A   Overcast
2:53 PM 44.1 °F 36.5 °F 30.0 °F 58% 29.74 in 10.0 mi West 17.3 mph 20.7 mph N/A   Overcast
3:13 PM 43.9 °F 37.5 °F 29.5 °F 57% 29.75 in 10.0 mi WNW 12.7 mph 20.7 mph N/A   Overcast
3:33 PM 43.9 °F 37.9 °F 29.5 °F 57% 29.75 in 10.0 mi NW 11.5 mph 17.3 mph N/A   Overcast
3:53 PM 43.5 °F 36.7 °F 29.8 °F 59% 29.76 in 10.0 mi WNW 13.8 mph 20.7 mph N/A   Overcast
4:14 PM 43.2 °F 35.9 °F 29.5 °F 59% 29.77 in 10.0 mi WNW 15.0 mph 21.9 mph N/A   Overcast
4:33 PM 43.5 °F 36.4 °F 29.1 °F 57% 29.77 in 10.0 mi WNW 15.0 mph 18.4 mph N/A   Mostly Cloudy
4:53 PM 43.2 °F 37.0 °F 28.9 °F 57% 29.77 in 10.0 mi West 11.5 mph 16.1 mph N/A   Mostly Cloudy
5:13 PM 44.1 °F 37.4 °F 29.5 °F 57% 29.78 in 10.0 mi West 13.8 mph 20.7 mph N/A   Mostly Cloudy
5:33 PM 43.3 °F 37.7 °F 29.1 °F 57% 29.79 in 10.0 mi WNW 10.4 mph 16.1 mph N/A   Mostly Cloudy
5:54 PM 41.7 °F 36.1 °F 29.3 °F 61% 29.79 in 10.0 mi West 9.2 mph - N/A   Scattered Clouds
6:13 PM 40.3 °F 35.5 °F 29.8 °F 66% 29.80 in 10.0 mi West 6.9 mph - N/A   Clear
6:33 PM 39.0 °F 34.0 °F 29.7 °F 69% 29.80 in 10.0 mi West 6.9 mph - N/A   Clear
6:53 PM 38.3 °F 32.5 °F 29.3 °F 70% 29.80 in 10.0 mi West 8.1 mph - N/A   Clear
7:13 PM 36.7 °F 32.0 °F 29.1 °F 74% 29.81 in 10.0 mi West 5.8 mph - N/A   Clear
7:33 PM 35.8 °F 30.1 °F 29.3 °F 77% 29.81 in 10.0 mi West 6.9 mph - N/A   Clear
7:53 PM 34.0 °F 29.8 °F 28.9 °F 82% 29.82 in 10.0 mi West 4.6 mph - N/A   Clear
8:13 PM 32.2 °F 27.7 °F 28.6 °F 87% 29.82 in 10.0 mi WSW 4.6 mph - N/A   Clear
8:33 PM 31.8 °F 27.3 °F 28.4 °F 87% 29.82 in 10.0 mi West 4.6 mph - N/A   Clear
8:53 PM 32.0 °F - 28.4 °F 87% 29.82 in 10.0 mi Calm Calm - N/A   Clear
9:13 PM 31.6 °F - 28.2 °F 87% 29.82 in 10.0 mi Calm Calm - N/A   Clear
9:33 PM 32.0 °F - 28.6 °F 87% 29.82 in 10.0 mi Calm Calm - N/A   Clear
9:53 PM 29.3 °F - 27.9 °F 94% 29.82 in 10.0 mi Calm Calm - N/A   Clear
10:13 PM 29.1 °F - 28.0 °F 96% 29.82 in 10.0 mi Calm Calm - N/A   Clear
10:34 PM 29.8 °F - 28.4 °F 94% 29.82 in 10.0 mi Calm Calm - N/A   Clear
10:53 PM 28.9 °F - 28.0 °F 96% 29.82 in 10.0 mi Calm Calm - N/A   Clear
11:13 PM 28.2 °F - 27.5 °F 97% 29.81 in 10.0 mi Calm Calm - N/A   Clear
11:33 PM 28.2 °F - 27.5 °F 97% 29.81 in 10.0 mi Calm Calm - N/A   Clear
11:53 PM 28.4 °F - 28.0 °F 99% 29.80 in 10.0 mi Calm Calm - N/A   Clear